Location: William D. McDowell Observatory
(40.7857°N, 74.1054°W)
Time: 15:37:52
(UTC-04:00)

Hubble Space Telescope - Visible Passes

Search period start: 21 September 2018 00:00
Search period end: 01 October 2018 00:00
Orbit: 537 x 541 km, 28.5° (Epoch: 20 September)

Date Brightness Start Highest point End Pass type
(mag) Time Alt. Az. Time Alt. Az. Time Alt. Az.
21 Sep 2.9 20:05:03 10° SW 20:07:21 15° S 20:09:00 12° SSE visible
22 Sep 3.0 19:54:37 10° SW 19:56:51 14° S 19:59:05 10° SSE visible
23 Sep 3.1 19:44:16 10° SW 19:46:20 14° S 19:48:24 10° SSE visible
24 Sep 3.2 19:34:01 10° SW 19:35:50 13° S 19:37:38 10° SSE visible
25 Sep 3.3 19:23:55 10° SSW 19:25:18 11° SSW 19:26:40 10° S visible
26 Sep 3.5 19:14:25 10° SSW 19:14:46 10° SSW 19:15:06 10° S visible
